Radiation Dose at Monitoring Post of Fukushima Daini Nuclear Power Station
Date,Time,MP-1(microSv/h),MP-2(microSv/h),MP-3(microSv/h),MP-4(microSv/h),MP-5(microSv/h),MP-6(microSv/h),MP-7(microSv/h),Wind Direction,Wind Velocity(m/s),Rain
2017/08/18,00:00,0.341,0.211,0.344,0.321,0.316,0.168,0.106,north,2.6,No
2017/08/18,00:10,0.341,0.212,0.341,0.325,0.314,0.169,0.106,north,2.5,No
2017/08/18,00:20,0.344,0.210,0.345,0.321,0.317,0.168,0.106,north,2.2,No
2017/08/18,00:30,0.339,0.210,0.346,0.321,0.314,0.168,0.106,north,1.9,No
2017/08/18,00:40,0.343,0.211,0.341,0.323,0.314,0.168,0.106,north-northwest,1.8,No
2017/08/18,00:50,0.343,0.209,0.344,0.320,0.316,0.169,0.106,north-northwest,1.9,No
2017/08/18,01:00,0.340,0.211,0.343,0.319,0.312,0.168,0.106,northwest,2.3,No
2017/08/18,01:10,0.343,0.211,0.341,0.323,0.313,0.168,0.105,northwest,1.2,No
2017/08/18,01:20,0.344,0.209,0.346,0.319,0.317,0.169,0.105,-,CALM,No
2017/08/18,01:30,0.342,0.212,0.343,0.321,0.314,0.168,0.107,west-northwest,0.8,No
2017/08/18,01:40,0.342,0.210,0.340,0.322,0.314,0.168,0.106,northwest,0.7,No
2017/08/18,01:50,0.346,0.210,0.345,0.320,0.317,0.169,0.106,north-northwest,0.6,No
2017/08/18,02:00,0.342,0.211,0.342,0.321,0.315,0.168,0.106,north-northwest,0.9,No
2017/08/18,02:10,0.340,0.210,0.341,0.325,0.312,0.167,0.106,northeast,0.5,No
2017/08/18,02:20,0.345,0.211,0.346,0.320,0.316,0.170,0.106,-,CALM,Yes
2017/08/18,02:30,0.341,0.211,0.342,0.321,0.316,0.168,0.106,north-northwest,0.6,No
2017/08/18,02:40,0.340,0.211,0.342,0.324,0.312,0.168,0.106,-,CALM,No
2017/08/18,02:50,0.344,0.210,0.344,0.320,0.316,0.168,0.105,-,CALM,No
2017/08/18,03:00,0.343,0.210,0.343,0.320,0.313,0.168,0.107,northeast,1.1,No
2017/08/18,03:10,0.342,0.210,0.345,0.323,0.313,0.169,0.106,north-northeast,2.1,No
2017/08/18,03:20,0.344,0.211,0.346,0.319,0.317,0.168,0.107,north,1.5,No
2017/08/18,03:30,0.341,0.212,0.341,0.322,0.316,0.168,0.107,north,1.4,No
2017/08/18,03:40,0.342,0.210,0.346,0.324,0.313,0.169,0.106,-,CALM,No
2017/08/18,03:50,0.345,0.213,0.344,0.320,0.317,0.170,0.107,north,0.8,No
2017/08/18,04:00,0.341,0.210,0.342,0.323,0.314,0.167,0.106,north-northeast,1.2,No
2017/08/18,04:10,0.342,0.210,0.347,0.322,0.315,0.168,0.107,north-northeast,1.0,No
2017/08/18,04:20,0.345,0.211,0.345,0.320,0.316,0.169,0.106,north-northeast,1.4,No
2017/08/18,04:30,0.344,0.211,0.343,0.324,0.316,0.167,0.106,north,1.9,No
2017/08/18,04:40,0.341,0.211,0.346,0.324,0.315,0.169,0.107,north,1.6,No
2017/08/18,04:50,0.345,0.212,0.343,0.319,0.317,0.169,0.106,north,1.2,No
2017/08/18,05:00,0.341,0.210,0.343,0.324,0.314,0.168,0.106,north-northeast,1.6,No
2017/08/18,05:10,0.342,0.212,0.348,0.323,0.313,0.170,0.106,north-northeast,1.9,No
2017/08/18,05:20,0.344,0.211,0.343,0.321,0.316,0.168,0.107,north,2.1,No
2017/08/18,05:30,0.343,0.210,0.344,0.324,0.315,0.168,0.106,north,1.4,Yes
2017/08/18,05:40,0.341,0.211,0.344,0.321,0.315,0.170,0.106,north-northwest,1.4,Yes
2017/08/18,05:50,0.345,0.210,0.342,0.320,0.316,0.168,0.107,north-northwest,1.3,No
2017/08/18,06:00,0.343,0.211,0.346,0.324,0.316,0.168,0.106,northwest,0.9,No
2017/08/18,06:10,0.341,0.213,0.345,0.321,0.312,0.169,0.107,west-southwest,1.1,Yes
2017/08/18,06:20,0.345,0.211,0.342,0.320,0.317,0.168,0.107,north-northwest,0.7,Yes
2017/08/18,06:30,0.341,0.209,0.346,0.325,0.314,0.168,0.106,north-northeast,0.9,Yes
2017/08/18,06:40,0.339,0.211,0.346,0.323,0.314,0.170,0.106,north,0.5,Yes
2017/08/18,06:50,0.346,0.212,0.343,0.320,0.316,0.170,0.107,north-northeast,1.0,Yes
2017/08/18,07:00,0.344,0.210,0.346,0.325,0.315,0.169,0.107,north,1.0,Yes
2017/08/18,07:10,0.341,0.213,0.346,0.324,0.313,0.170,0.107,-,CALM,Yes
2017/08/18,07:20,0.343,0.212,0.344,0.319,0.317,0.170,0.109,north-northwest,1.6,No
2017/08/18,07:30,0.346,0.210,0.344,0.325,0.318,0.169,0.108,north-northeast,1.5,Yes
2017/08/18,07:40,0.341,0.213,0.347,0.324,0.314,0.170,0.106,north-northeast,1.3,Yes
2017/08/18,07:50,0.344,0.214,0.345,0.320,0.315,0.172,0.109,north-northeast,0.8,Yes
2017/08/18,08:00,0.346,0.212,0.347,0.323,0.319,0.172,0.110,north-northeast,1.3,Yes
2017/08/18,08:10,0.344,0.214,0.348,0.325,0.315,0.170,0.108,north-northeast,1.7,Yes
2017/08/18,08:20,0.343,0.214,0.343,0.322,0.313,0.170,0.109,north-northeast,1.8,Yes
2017/08/18,08:30,0.346,0.213,0.344,0.323,0.316,0.172,0.109,north-northwest,1.6,Yes
2017/08/18,08:40,0.345,0.211,0.348,0.324,0.316,0.171,0.108,north-northwest,1.3,Yes
2017/08/18,08:50,0.340,0.214,0.345,0.322,0.316,0.169,0.104,north,0.8,Yes
2017/08/18,09:00,0.342,0.213,0.343,0.319,0.314,0.170,0.105,east-northeast,0.7,Yes
2017/08/18,09:10,0.346,0.212,0.344,0.324,0.316,0.171,0.105,north,0.6,Yes
2017/08/18,09:20,0.342,0.210,0.346,0.325,0.318,0.169,0.106,north-northeast,1.4,Yes
2017/08/18,09:30,0.339,0.212,0.343,0.321,0.315,0.169,0.106,north-northeast,0.9,Yes
2017/08/18,09:40,0.343,0.213,0.340,0.319,0.312,0.169,0.105,north-northeast,1.6,No
2017/08/18,09:50,0.344,0.211,0.342,0.319,0.311,0.170,0.107,northeast,1.6,No
2017/08/18,10:00,0.342,0.210,0.345,0.322,0.314,0.169,0.107,north,1.7,No
2017/08/18,10:10,0.341,0.209,0.342,0.323,0.317,0.169,0.106,north-northeast,2.1,No
2017/08/18,10:20,0.343,0.211,0.339,0.319,0.315,0.167,0.105,north,2.0,No
2017/08/18,10:30,0.345,0.212,0.345,0.322,0.312,0.168,0.105,north-northwest,0.9,No
2017/08/18,10:40,0.343,0.210,0.344,0.324,0.311,0.168,0.106,north,0.6,No
2017/08/18,10:50,0.340,0.210,0.343,0.322,0.311,0.169,0.107,-,CALM,No
2017/08/18,11:00,0.338,0.209,0.341,0.319,0.312,0.169,0.106,-,CALM,No
2017/08/18,11:10,0.345,0.208,0.340,0.318,0.317,0.168,0.106,east-northeast,1.3,Yes
2017/08/18,11:20,0.344,0.211,0.344,0.318,0.317,0.168,0.105,northeast,1.6,Yes
2017/08/18,11:30,0.342,0.213,0.345,0.323,0.315,0.168,0.105,northeast,1.4,Yes
2017/08/18,11:40,0.339,0.211,0.343,0.323,0.313,0.169,0.108,east-northeast,1.9,Yes
2017/08/18,11:50,0.341,0.211,0.341,0.320,0.312,0.170,0.108,southeast,1.9,Yes
2017/08/18,12:00,0.347,0.211,0.342,0.320,0.316,0.169,0.109,east,2.2,Yes
2017/08/18,12:10,0.345,0.213,0.347,0.324,0.318,0.170,0.109,southeast,1.8,Yes
2017/08/18,12:20,0.343,0.215,0.347,0.325,0.317,0.174,0.112,east-southeast,1.4,Yes
2017/08/18,12:30,0.347,0.216,0.344,0.323,0.318,0.175,0.114,east,3.7,Yes
2017/08/18,12:40,0.350,0.220,0.349,0.326,0.322,0.177,0.114,east,3.4,Yes
2017/08/18,12:50,0.348,0.221,0.348,0.329,0.320,0.180,0.117,southwest,3.4,Yes
2017/08/18,13:00,0.350,0.221,0.346,0.327,0.322,0.180,0.118,west-southwest,1.9,Yes
2017/08/18,13:10,0.352,0.224,0.352,0.330,0.327,0.181,0.118,-,CALM,Yes
2017/08/18,13:20,0.351,0.227,0.355,0.334,0.327,0.181,0.120,south-southwest,2.3,Yes
2017/08/18,13:30,0.348,0.226,0.349,0.332,0.322,0.183,0.118,southeast,1.3,Yes
2017/08/18,13:40,0.352,0.223,0.351,0.328,0.325,0.180,0.117,south-southeast,1.5,Yes
2017/08/18,13:50,0.350,0.222,0.351,0.331,0.324,0.177,0.117,-,CALM,No
2017/08/18,14:00,0.344,0.220,0.345,0.326,0.318,0.177,0.115,southeast,0.7,No
2017/08/18,14:10,0.345,0.216,0.345,0.322,0.321,0.174,0.113,-,CALM,Yes
2017/08/18,14:20,0.348,0.218,0.346,0.323,0.320,0.172,0.111,southeast,1.3,Yes
2017/08/18,14:30,0.341,0.215,0.344,0.323,0.315,0.172,0.111,south,2.0,Yes
2017/08/18,14:40,0.341,0.214,0.342,0.321,0.317,0.175,0.111,south-southwest,4.7,Yes
2017/08/18,14:50,0.346,0.217,0.346,0.322,0.322,0.174,0.112,south,1.4,Yes
2017/08/18,15:00,0.344,0.217,0.344,0.326,0.319,0.174,0.113,southeast,0.7,Yes
2017/08/18,15:10,0.340,0.215,0.341,0.323,0.315,0.175,0.112,southeast,0.7,Yes
2017/08/18,15:20,0.346,0.216,0.346,0.320,0.320,0.174,0.111,-,CALM,Yes
2017/08/18,15:30,0.345,0.217,0.345,0.324,0.319,0.174,0.112,-,CALM,Yes
2017/08/18,15:40,0.340,0.215,0.339,0.322,0.317,0.173,0.109,-,CALM,No
2017/08/18,15:50,0.340,0.212,0.342,0.320,0.317,0.172,0.110,-,CALM,No
2017/08/18,16:00,0.342,0.213,0.343,0.320,0.317,0.170,0.110,-,CALM,No
2017/08/18,16:10,0.339,0.212,0.338,0.319,0.315,0.170,0.108,northeast,0.6,No
2017/08/18,16:20,0.335,0.209,0.338,0.318,0.309,0.170,0.107,north-northwest,0.5,No
2017/08/18,16:30,0.341,0.209,0.342,0.315,0.315,0.170,0.108,northwest,1.0,No
2017/08/18,16:40,0.340,0.210,0.338,0.319,0.315,0.167,0.108,north-northwest,0.7,No
2017/08/18,16:50,0.336,0.208,0.336,0.318,0.311,0.167,0.107,-,CALM,No
2017/08/18,17:00,0.335,0.207,0.339,0.314,0.309,0.168,0.106,north-northwest,1.2,No
2017/08/18,17:10,0.338,0.208,0.338,0.317,0.314,0.167,0.107,north,2.1,No
2017/08/18,17:20,0.337,0.209,0.336,0.317,0.312,0.165,0.105,north-northeast,1.2,No
2017/08/18,17:30,0.336,0.207,0.333,0.315,0.310,0.166,0.104,north-northeast,1.4,No
2017/08/18,17:40,0.336,0.207,0.339,0.313,0.308,0.167,0.105,northeast,1.5,No
2017/08/18,17:50,0.337,0.208,0.338,0.317,0.313,0.166,0.105,north,1.9,No
2017/08/18,18:00,0.338,0.209,0.335,0.317,0.312,0.165,0.105,north-northeast,2.2,No
2017/08/18,18:10,0.335,0.207,0.339,0.313,0.310,0.165,0.103,north-northeast,1.7,No
2017/08/18,18:20,0.339,0.207,0.337,0.315,0.312,0.168,0.105,north-northeast,1.9,No
2017/08/18,18:30,0.338,0.208,0.336,0.318,0.314,0.166,0.105,north,2.5,No
2017/08/18,18:40,0.335,0.207,0.337,0.315,0.311,0.166,0.104,north,3.1,No
2017/08/18,18:50,0.336,0.207,0.338,0.314,0.311,0.166,0.105,north,2.5,No
2017/08/18,19:00,0.338,0.209,0.337,0.318,0.313,0.165,0.106,north,2.2,No
2017/08/18,19:10,0.335,0.207,0.337,0.316,0.311,0.166,0.104,north,1.9,No
2017/08/18,19:20,0.336,0.207,0.339,0.315,0.310,0.166,0.105,north-northeast,2.2,No
2017/08/18,19:30,0.338,0.208,0.337,0.317,0.315,0.167,0.105,north-northeast,2.2,No
2017/08/18,19:40,0.337,0.207,0.336,0.319,0.311,0.166,0.105,north-northeast,2.8,No
2017/08/18,19:50,0.334,0.207,0.338,0.314,0.309,0.164,0.105,north-northeast,2.6,No
2017/08/18,20:00,0.340,0.209,0.338,0.315,0.311,0.166,0.105,north-northeast,1.7,No
2017/08/18,20:10,0.338,0.207,0.336,0.318,0.314,0.166,0.104,north,1.1,No
2017/08/18,20:20,0.335,0.207,0.340,0.316,0.310,0.165,0.105,north,1.9,No
2017/08/18,20:30,0.339,0.209,0.339,0.314,0.311,0.166,0.106,north-northwest,2.5,No
2017/08/18,20:40,0.339,0.207,0.336,0.319,0.313,0.167,0.105,northwest,4.0,No
2017/08/18,20:50,0.334,0.206,0.338,0.316,0.311,0.165,0.105,north,2.3,No
2017/08/18,21:00,0.338,0.208,0.339,0.314,0.310,0.165,0.106,north,2.5,No
2017/08/18,21:10,0.338,0.208,0.337,0.317,0.314,0.166,0.105,north-northeast,2.5,No
2017/08/18,21:20,0.336,0.207,0.338,0.318,0.312,0.166,0.104,north,2.4,No
2017/08/18,21:30,0.337,0.207,0.340,0.314,0.309,0.165,0.106,north-northwest,2.4,Yes
2017/08/18,21:40,0.340,0.210,0.337,0.317,0.314,0.166,0.105,north,3.9,Yes
2017/08/18,21:50,0.336,0.208,0.339,0.317,0.311,0.166,0.105,north,2.8,No
2017/08/18,22:00,0.336,0.208,0.342,0.313,0.310,0.165,0.105,north,3.1,No
2017/08/18,22:10,0.339,0.209,0.336,0.319,0.314,0.167,0.105,north,2.9,No
2017/08/18,22:20,0.336,0.206,0.338,0.319,0.312,0.167,0.105,north,2.8,No
2017/08/18,22:30,0.337,0.208,0.340,0.315,0.310,0.164,0.106,north-northwest,2.3,No
2017/08/18,22:40,0.340,0.208,0.336,0.317,0.314,0.166,0.105,north,2.6,No
2017/08/18,22:50,0.336,0.207,0.339,0.317,0.312,0.166,0.105,north,3.3,No
2017/08/18,23:00,0.337,0.208,0.340,0.315,0.311,0.166,0.106,north-northwest,2.5,No
2017/08/18,23:10,0.341,0.209,0.337,0.316,0.312,0.167,0.106,north-northwest,3.0,No
2017/08/18,23:20,0.336,0.208,0.338,0.319,0.311,0.167,0.105,north,3.1,No
2017/08/18,23:30,0.336,0.208,0.339,0.315,0.310,0.165,0.105,north,3.5,No
2017/08/18,23:40,0.340,0.206,0.335,0.317,0.314,0.166,0.105,north-northwest,3.3,No
2017/08/18,23:50,0.336,0.208,0.340,0.318,0.310,0.166,0.105,north-northwest,3.3,No
